Location: Meriden
(44.0740°N, 93.3870°W)
Time: 04:01:14
(UTC-06:00)

Amateur Radio Satellites - All Passes

Search period start: 18 January 2017 03:31
Search period end: 19 January 2017 03:31
Location: Meriden, 44.0740°N, 93.3870°W

Satellite Date Start Highest point End Downlink Frequencies (MHz)
Time Altitude Azimuth
Cosmos 2491 18 Jan 03:34:07 03:42:30 51° 286° (WNW) 03:50:58 435.465 / 435.565
AIST 2 18 Jan 03:36:05 03:38:58 17° 39° (NE) 03:41:51 435.215
BEESAT 2 18 Jan 03:41:49 03:44:12 15° 249° (WSW) 03:46:35 435.950
ITAMSAT 1 18 Jan 03:42:27 03:47:42 87° 281° (W) 03:52:54 435.822/435.867
MOZHAYETS 4 18 Jan 03:47:07 03:51:07 30° 265° (W) 03:55:10
Cosmos 2504 18 Jan 03:51:01 03:57:15 30° 276° (W) 04:03:16 435.465 / 435.565
BRITE-PL 18 Jan 03:59:06 04:01:25 13° 86° (E) 04:03:38 437.365/2234.400
AUBIESAT-1 18 Jan 04:05:37 04:09:17 26° 258° (WSW) 04:12:47 437.475
ISS 18 Jan 04:08:41 04:11:40 31° 19° (NNE) 04:14:37 145.825
PCSat 18 Jan 04:09:32 04:11:37 12° 330° (NNW) 04:13:43 145.827
STARS 18 Jan 04:10:48 04:15:11 83° 76° (ENE) 04:19:36 437.465
CUBESAT XI-V 18 Jan 04:24:25 04:29:07 78° 258° (WSW) 04:33:51 437.345
CUSAT 1 18 Jan 04:40:56 04:45:34 36° 293° (WNW) 04:51:28 437.405
KKS-1 18 Jan 04:47:38 04:50:57 20° 267° (W) 04:54:17 437.445
PHONESAT 2.4 18 Jan 04:54:26 04:56:32 30° 176° (S) 04:58:38 2401.200-2431.200
AO-7 18 Jan 04:58:14 05:06:23 58° 296° (WNW) 05:14:28 29.400- 29.500
DANDE 18 Jan 05:04:31 05:08:08 60° 285° (WNW) 05:13:00 436.750
STRAND 1 18 Jan 05:06:31 05:08:45 13° 57° (ENE) 05:11:00 437.568
AIST 2 18 Jan 05:13:41 05:17:56 74° 237° (WSW) 05:22:09 435.215
Cubesat XI-IV 18 Jan 05:16:54 05:19:30 14° 89° (E) 05:22:06 437.490
ITAMSAT 1 18 Jan 05:23:59 05:26:22 13° 303° (WNW) 05:28:45 435.822/435.867
RS-15 18 Jan 05:32:52 05:43:10 29° 9° (N) 05:53:25 29.354- 29.394
NOAA 15 18 Jan 05:34:38 05:38:38 21° 92° (E) 05:42:36 137.62
GONETS M04 18 Jan 05:35:30 05:41:49 21° 60° (ENE) 05:48:06
BRITE-PL 18 Jan 05:35:32 05:40:35 72° 286° (WNW) 05:45:13 437.365/2234.400
Cosmos 2491 18 Jan 05:40:32 05:41:56 10° 311° (NW) 05:43:20 435.465 / 435.565
ISS 18 Jan 05:45:05 05:48:16 52° 217° (SW) 05:51:26 145.825
HORYU 2 18 Jan 05:45:34 05:50:00 67° 102° (ESE) 05:54:27 437.375
GOMX 1 18 Jan 05:53:25 05:57:59 70° 101° (ESE) 06:02:14 467.674
CUTE-I 18 Jan 06:12:39 06:17:45 44° 99° (E) 06:22:50 437.470
O/OREOS (USA 219) 18 Jan 06:13:54 06:17:30 24° 103° (ESE) 06:21:06 437.305
Cosmos 2499 18 Jan 06:17:42 06:24:20 37° 71° (ENE) 06:30:47 435.465 / 435.565
LilacSat-2 18 Jan 06:19:52 06:23:42 62° 101° (E) 06:27:32 437.200
PHONESAT 2.4 18 Jan 06:28:27 06:30:25 24° 192° (SSW) 06:32:22 2401.200-2431.200
NOAA 18 18 Jan 06:37:41 06:42:50 40° 99° (E) 06:47:54 137.9125
STRAND 1 18 Jan 06:42:04 06:47:09 87° 77° (ENE) 06:52:17 437.568
DOVE 4 18 Jan 06:46:07 06:50:23 83° 284° (WNW) 06:54:31 437.250
AO-7 18 Jan 06:53:05 06:57:24 15° 318° (NW) 07:01:43 29.400- 29.500
Cubesat XI-IV 18 Jan 06:54:51 07:00:12 81° 287° (WNW) 07:05:33 437.490
CINEMA 3 18 Jan 06:56:59 07:00:37 28° 96° (E) 07:04:17 145.822/145.860
NOAA 15 18 Jan 07:13:32 07:18:43 53° 290° (WNW) 07:23:51 137.62
HO-68 18 Jan 07:23:32 07:30:13 40° 97° (E) 07:36:50 435.675
HORYU 2 18 Jan 07:23:40 07:26:02 14° 299° (WNW) 07:28:22 437.375
CUTE 1.7 + AOD 2 18 Jan 07:25:36 07:29:33 34° 97° (E) 07:33:26 437.475
GONETS M04 18 Jan 07:31:05 07:39:59 89° 83° (E) 07:48:51
GOMX 1 18 Jan 07:33:19 07:35:24 13° 301° (WNW) 07:37:27 467.674
PRISM 18 Jan 07:38:08 07:41:01 19° 64° (ENE) 07:43:56 437.425
RS-15 18 Jan 07:47:22 07:59:27 53° 42° (NE) 08:11:09 29.354- 29.394
O/OREOS (USA 219) 18 Jan 07:52:35 07:56:43 36° 301° (WNW) 08:00:51 437.305
CUTE-I 18 Jan 07:53:10 07:57:34 27° 296° (WNW) 08:01:58 437.470
CANX-2 18 Jan 07:54:01 07:58:21 82° 102° (ESE) 08:02:39 2200.000
LilacSat-2 18 Jan 07:56:04 07:57:30 12° 297° (WNW) 07:58:54 437.200
CUBEBUG 2 18 Jan 08:08:53 08:12:59 42° 98° (E) 08:17:10 437.445
SEEDS 18 Jan 08:10:37 08:14:53 72° 101° (E) 08:19:07 437.485
Cosmos 2499 18 Jan 08:10:53 08:17:28 40° 272° (W) 08:23:55 435.465 / 435.565
Oscar 11 18 Jan 08:13:40 08:16:21 16° 91° (E) 08:19:02 145.826/435.025
NOAA 18 18 Jan 08:18:37 08:23:20 31° 296° (WNW) 08:28:01 137.9125
COMPASS 1 18 Jan 08:21:03 08:25:15 61° 101° (E) 08:29:23 437.405
STRAND 1 18 Jan 08:25:19 08:27:01 11° 272° (W) 08:28:43 437.568
CINEMA 3 18 Jan 08:34:14 08:37:41 26° 292° (WNW) 08:41:10 145.822/145.860
AAUSAT CUBESAT 2 18 Jan 08:35:00 08:39:12 67° 101° (E) 08:43:21 437.432
SO-50 18 Jan 08:35:35 08:40:14 61° 120° (ESE) 08:44:50 436.795
Cubesat XI-IV 18 Jan 08:37:09 08:39:26 13° 304° (NW) 08:41:43 437.490
UWE-3 18 Jan 08:42:39 08:46:56 62° 101° (E) 08:51:21 435.000/436.395/437.385
FUNcube-1 18 Jan 08:45:47 08:49:51 37° 97° (E) 08:53:58 145.935
UNISAT 6 18 Jan 08:49:40 08:53:25 31° 69° (ENE) 08:57:10 437.425
CUTE 1.7 + AOD 2 18 Jan 09:01:46 09:05:12 24° 293° (WNW) 09:08:37 437.475
TIGRISAT 18 Jan 09:03:33 09:07:31 39° 71° (ENE) 09:11:30 435.000
ZACube-1 18 Jan 09:07:11 09:11:32 70° 102° (ESE) 09:15:58 437.345
HO-68 18 Jan 09:11:15 09:17:58 44° 296° (WNW) 09:24:38 435.675
PRISM 18 Jan 09:12:03 09:16:00 42° 261° (W) 09:20:00 437.425
ANTELSAT 18 Jan 09:17:53 09:22:04 60° 74° (ENE) 09:26:16 437.575/2403.000
PCSat 18 Jan 09:24:44 09:29:38 33° 48° (NE) 09:34:30 145.827
GONETS M04 18 Jan 09:29:43 09:35:33 20° 283° (WNW) 09:41:25
CANX-2 18 Jan 09:32:16 09:33:33 11° 300° (WNW) 09:34:50 2200.000
JAS-2 18 Jan 09:40:27 09:45:18 37° 65° (ENE) 09:50:34 435.910
HUMSAT D 18 Jan 09:40:56 09:44:33 26° 95° (E) 09:48:10 437.325/437.525
POPSAT HIP 1 18 Jan 09:41:35 09:43:04 12° 60° (ENE) 09:44:33 437.405
CUBEBUG 2 18 Jan 09:46:15 09:49:20 20° 295° (WNW) 09:52:29 437.445
SEEDS 18 Jan 09:48:14 09:49:59 12° 299° (WNW) 09:51:45 437.485
Oscar 11 18 Jan 09:48:33 09:52:47 51° 288° (WNW) 09:57:00 145.826/435.025
DUCHIFAT 1 18 Jan 09:54:48 09:56:58 14° 62° (ENE) 09:59:08 145.980
COMPASS 1 18 Jan 09:58:08 10:00:17 14° 298° (WNW) 10:02:26 437.405
NANOSAT C BR1 18 Jan 09:58:27 10:01:06 17° 64° (ENE) 10:03:46 145.865
RS-15 18 Jan 10:00:21 10:12:15 58° 247° (WSW) 10:23:42 29.354- 29.394
AAUSAT CUBESAT 2 18 Jan 10:12:17 10:14:07 13° 299° (WNW) 10:15:56 437.432
DELFI C3 18 Jan 10:14:15 10:18:15 72° 285° (WNW) 10:22:13 145.870
SO-50 18 Jan 10:17:21 10:21:04 23° 320° (NW) 10:24:45 436.795
UWE-3 18 Jan 10:20:37 10:22:57 14° 297° (WNW) 10:25:18 435.000/436.395/437.385
FUNcube-1 18 Jan 10:22:31 10:25:53 22° 294° (WNW) 10:29:18 145.935
UNISAT 6 18 Jan 10:26:39 10:30:08 25° 265° (W) 10:33:40 437.425
BUGSAT 1 18 Jan 10:39:17 10:41:38 15° 63° (ENE) 10:43:57 437.445
TIGRISAT 18 Jan 10:41:21 10:44:23 19° 267° (W) 10:47:26 435.000
ZACube-1 18 Jan 10:45:15 10:47:18 13° 298° (WNW) 10:49:22 437.345
QB50P1 18 Jan 10:47:27 10:51:34 57° 73° (ENE) 10:55:42 145.935-145.965
POLYITAN 1 18 Jan 10:50:47 10:54:55 63° 74° (ENE) 10:59:05 437.675
QB50P2 18 Jan 10:51:54 10:56:04 69° 75° (ENE) 11:00:16 145.880/145.840
BY70-1 18 Jan 10:52:03 10:55:14 36° 98° (E) 10:58:16 436.1900
ANTELSAT 18 Jan 10:57:19 10:59:11 13° 270° (W) 11:01:03 437.575/2403.000
PCSat 18 Jan 11:08:02 11:13:09 43° 247° (WSW) 11:18:13 145.827
CUBEBUG 1 18 Jan 11:08:06 11:11:03 18° 92° (E) 11:14:00 437.445
Oscar 19 18 Jan 11:09:21 11:11:32 13° 56° (ENE) 11:13:44 437.125/150
POPSAT HIP 1 18 Jan 11:14:04 11:18:15 74° 258° (WSW) 11:22:27 437.405
HUMSAT D 18 Jan 11:16:24 11:20:08 30° 291° (WNW) 11:23:52 437.325/437.525
AISAT 18 Jan 11:18:24 11:20:56 15° 91° (E) 11:23:27 437.250
JAS-2 18 Jan 11:25:53 11:30:31 30° 266° (W) 11:35:30 435.910
DUCHIFAT 1 18 Jan 11:28:03 11:32:10 59° 259° (W) 11:36:18 145.980
ESTCUBE 1 18 Jan 11:28:48 11:33:14 50° 100° (E) 11:37:37 437.505/2401.250
NANOSAT C BR1 18 Jan 11:32:24 11:36:27 48° 261° (W) 11:40:31 145.865
50 SAT 18 Jan 11:37:43 11:39:45 14° 92° (E) 11:41:47 437.505
Cosmos 2491 18 Jan 11:46:29 11:52:40 21° 60° (ENE) 11:58:51 435.465 / 435.565
VELOX 1 18 Jan 11:50:52 11:54:47 31° 96° (E) 11:58:40 145.980
BUGSAT 1 18 Jan 12:12:37 12:16:36 51° 260° (W) 12:20:34 437.445
RS-15 18 Jan 12:18:08 12:21:43 12° 269° (W) 12:25:17 29.354- 29.394
AO-7 18 Jan 12:19:04 12:23:08 15° 41° (NE) 12:27:12 29.400- 29.500
BY70-1 18 Jan 12:23:24 12:25:16 14° 296° (WNW) 12:27:06 436.1900
QB50P1 18 Jan 12:25:40 12:27:42 13° 270° (W) 12:29:43 145.935-145.965
POLYITAN 1 18 Jan 12:29:31 12:31:08 12° 271° (W) 12:32:45 437.675
DX 1 18 Jan 12:30:48 12:34:54 39° 98° (E) 12:38:57 434.975-435.025
QB50P2 18 Jan 12:31:14 12:32:20 11° 271° (W) 12:33:25 145.880/145.840
UKube-1 18 Jan 12:34:50 12:38:41 31° 97° (E) 12:42:33 .
SPROUT 18 Jan 12:37:11 12:41:27 74° 101° (E) 12:45:42 437.525
TISAT 1 18 Jan 12:40:21 12:41:31 11° 89° (E) 12:42:43 437.305
Gurwin Techsat 1B 18 Jan 12:40:22 12:45:19 42° 69° (ENE) 12:50:19 435.225
CUBEBUG 1 18 Jan 12:43:26 12:47:34 44° 289° (WNW) 12:51:40 437.445
Oscar 19 18 Jan 12:44:50 12:50:02 83° 75° (ENE) 12:55:16 437.125/150
AISAT 18 Jan 12:53:26 12:57:44 54° 287° (WNW) 13:02:00 437.250
ESTCUBE 1 18 Jan 13:06:31 13:09:39 19° 297° (WNW) 13:12:47 437.505/2401.250
AIST 1 18 Jan 13:08:00 13:10:00 13° 84° (E) 13:12:01
50 SAT 18 Jan 13:09:49 13:13:08 36° 288° (WNW) 13:16:24 437.505
ITAMSAT 1 18 Jan 13:23:59 13:28:01 24° 63° (ENE) 13:32:05 435.822/435.867
VELOX 1 18 Jan 13:27:27 13:31:09 27° 293° (WNW) 13:34:49 145.980
CUSAT 1 18 Jan 13:29:08 13:36:25 38° 68° (ENE) 13:43:28 437.405
Cosmos 2491 18 Jan 13:42:02 13:50:53 88° 84° (E) 13:59:42 435.465 / 435.565
BEESAT 18 Jan 13:48:37 13:51:02 14° 90° (E) 13:53:25 436.000
SWISSCUBE 18 Jan 13:49:35 13:52:30 16° 91° (E) 13:55:24 437.505
YUBILEINY 18 Jan 13:51:02 13:59:08 43° 87° (E) 14:07:16 435.215
DANDE 18 Jan 13:55:52 14:01:47 24° 65° (ENE) 14:08:12 436.750
AO-7 18 Jan 14:06:02 14:14:05 55° 63° (ENE) 14:22:11 29.400- 29.500
DX 1 18 Jan 14:07:33 14:10:50 21° 296° (WNW) 14:14:06 434.975-435.025
UKube-1 18 Jan 14:11:03 14:14:36 25° 294° (WNW) 14:18:08 .
TISAT 1 18 Jan 14:13:27 14:17:36 67° 285° (WNW) 14:21:44 437.305
SPROUT 18 Jan 14:15:10 14:16:47 12° 300° (WNW) 14:18:24 437.525
AO-85 18 Jan 14:18:54 14:23:26 47° 119° (ESE) 14:27:40 145.980
Gurwin Techsat 1B 18 Jan 14:20:58 14:25:24 27° 266° (W) 14:29:53 435.225
Oscar 19 18 Jan 14:27:43 14:30:00 13° 272° (W) 14:32:17 437.125/150
Cosmos 2504 18 Jan 14:35:50 14:43:56 45° 88° (E) 14:51:37 435.465 / 435.565
AIST 1 18 Jan 14:42:44 14:47:03 58° 281° (W) 14:51:22
ITUPSAT 1 18 Jan 14:48:20 14:53:02 51° 100° (E) 14:57:43 437.325
ITAMSAT 1 18 Jan 15:02:12 15:07:11 49° 260° (W) 15:12:12 435.822/435.867
BRITE-PL 18 Jan 15:09:32 15:13:53 23° 63° (ENE) 15:18:11 437.365/2234.400
CUSAT 1 18 Jan 15:10:55 15:18:36 54° 268° (W) 15:25:56 437.405
BEESAT 18 Jan 15:24:30 15:29:17 70° 287° (WNW) 15:34:02 436.000
SWISSCUBE 18 Jan 15:25:56 15:30:41 61° 288° (WNW) 15:35:24 437.505
SO-50 18 Jan 15:26:16 15:28:57 15° 34° (NE) 15:31:38 436.795
GOMX 1 18 Jan 15:27:03 15:29:38 14° 60° (ENE) 15:32:10 467.674
DANDE 18 Jan 15:37:35 15:45:09 83° 262° (W) 15:53:32 436.750
MOZHAYETS 4 18 Jan 15:39:44 15:44:19 56° 100° (E) 15:48:53
Cosmos 2491 18 Jan 15:40:40 15:46:30 20° 283° (WNW) 15:52:22 435.465 / 435.565
AUBIESAT-1 18 Jan 15:43:32 15:45:01 12° 97° (E) 15:46:29 437.475
YUBILEINY 18 Jan 15:47:31 15:55:52 46° 288° (WNW) 16:04:19 435.215
AO-7 18 Jan 15:59:33 16:07:06 37° 263° (W) 16:14:44 29.400- 29.500
CUTE-I 18 Jan 15:59:41 16:01:59 13° 56° (NE) 16:04:18 437.470
AO-85 18 Jan 16:00:13 16:04:02 25° 316° (NW) 16:07:37 145.980
STARS 18 Jan 16:00:21 16:02:24 13° 90° (E) 16:04:26 437.465
DOVE 4 18 Jan 16:17:05 16:19:51 15° 62° (ENE) 16:22:33 437.250
CUBESAT XI-V 18 Jan 16:20:01 16:23:50 24° 93° (E) 16:27:35 437.345
O/OREOS (USA 219) 18 Jan 16:21:20 16:25:48 61° 64° (ENE) 16:30:16 437.305
ITUPSAT 1 18 Jan 16:27:01 16:30:30 20° 298° (WNW) 16:33:58 437.325
NOAA 18 18 Jan 16:28:13 16:31:03 14° 56° (NE) 16:33:52 137.9125
Cosmos 2504 18 Jan 16:29:10 16:37:19 43° 287° (WNW) 16:45:04 435.465 / 435.565
KKS-1 18 Jan 16:35:30 16:39:55 67° 102° (ESE) 16:44:19 437.445
M-CUBED/EXP-1 PRIME 18 Jan 16:37:45 16:41:12 83° 111° (ESE) 16:44:28 437.505
Cubesat XI-IV 18 Jan 16:39:35 16:43:59 27° 64° (ENE) 16:48:24 437.490
HORYU 2 18 Jan 16:44:40 16:49:04 74° 74° (ENE) 16:53:29 437.375
BRITE-PL 18 Jan 16:46:17 16:51:53 60° 260° (W) 16:57:30 437.365/2234.400
BEESAT 3 18 Jan 16:52:53 16:56:40 53° 120° (ESE) 17:00:31 437.485
NOAA 15 18 Jan 16:55:46 17:00:39 39° 67° (ENE) 17:05:34 137.62
CUSAT 1 18 Jan 16:57:48 16:58:48 10° 286° (WNW) 16:59:48 437.405
GOMX 1 18 Jan 17:01:33 17:07:00 87° 77° (ENE) 17:12:15 467.674
LilacSat-2 18 Jan 17:03:09 17:06:36 36° 71° (ENE) 17:10:06 437.200
SO-50 18 Jan 17:05:38 17:10:10 80° 56° (NE) 17:14:38 436.795
AUBIESAT-1 18 Jan 17:16:30 17:19:42 38° 294° (WNW) 17:22:47 437.475
MOZHAYETS 4 18 Jan 17:17:59 17:21:03 18° 297° (WNW) 17:24:07
DANDE 18 Jan 17:22:05 17:27:03 19° 278° (W) 17:32:17 436.750
BEESAT 2 18 Jan 17:32:49 17:36:42 62° 121° (ESE) 17:40:40 435.950
STARS 18 Jan 17:34:50 17:39:09 62° 287° (WNW) 17:43:27 437.465
CUTE-I 18 Jan 17:35:53 17:41:12 83° 74° (ENE) 17:46:32 437.470
DOVE 4 18 Jan 17:51:59 17:57:02 74° 258° (WSW) 18:01:50 437.250
HO-68 18 Jan 17:53:51 18:00:13 36° 61° (ENE) 18:06:36 435.675
CUBESAT XI-V 18 Jan 17:56:57 18:01:18 38° 291° (WNW) 18:05:37 437.345
CINEMA 3 18 Jan 17:59:53 18:03:51 32° 69° (ENE) 18:07:41 145.822/145.860
O/OREOS (USA 219) 18 Jan 18:02:18 18:04:40 14° 261° (W) 18:07:02 437.305
NOAA 18 18 Jan 18:05:23 18:10:54 86° 75° (ENE) 18:16:26 137.9125
KKS-1 18 Jan 18:13:39 18:15:57 14° 299° (WNW) 18:18:13 437.445
Cubesat XI-IV 18 Jan 18:18:48 18:23:50 43° 261° (W) 18:28:55 437.490
CUTE 1.7 + AOD 2 18 Jan 18:19:37 18:23:17 29° 68° (ENE) 18:27:00 437.475
HORYU 2 18 Jan 18:24:52 18:26:08 11° 271° (W) 18:27:24 437.375
BEESAT 3 18 Jan 18:31:43 18:34:35 19° 319° (NW) 18:37:29 437.485
NOAA 15 18 Jan 18:35:57 18:40:30 29° 265° (W) 18:45:06 137.62
LilacSat-2 18 Jan 18:38:34 18:41:02 17° 268° (W) 18:43:31 437.200
GONETS M04 18 Jan 18:40:30 18:46:28 21° 77° (ENE) 18:52:27
GOMX 1 18 Jan 18:43:16 18:45:38 13° 272° (W) 18:47:58 467.674
CANX-2 18 Jan 18:47:45 18:51:58 68° 74° (ENE) 18:56:13 2200.000
SO-50 18 Jan 18:48:12 18:49:57 12° 252° (WSW) 18:51:43 436.795
STRAND 1 18 Jan 18:51:30 18:55:48 27° 95° (E) 19:00:07 437.568
Cosmos 2499 18 Jan 18:55:50 19:02:59 32° 85° (E) 19:09:44 435.465 / 435.565
SEEDS 18 Jan 19:03:17 19:07:24 57° 73° (ENE) 19:11:35 437.485
CUBEBUG 2 18 Jan 19:08:29 19:12:24 40° 71° (ENE) 19:16:17 437.445
Oscar 11 18 Jan 19:10:16 19:12:50 16° 63° (ENE) 19:15:24 145.826/435.025
BEESAT 2 18 Jan 19:12:07 19:14:53 18° 320° (NW) 19:17:40 435.950
COMPASS 1 18 Jan 19:12:45 19:16:47 48° 72° (ENE) 19:20:52 437.405
AIST 2 18 Jan 19:13:53 19:16:22 16° 110° (ESE) 19:18:52 435.215
CUTE-I 18 Jan 19:19:26 19:21:54 13° 272° (W) 19:24:22 437.470
AAUSAT CUBESAT 2 18 Jan 19:26:08 19:30:11 52° 73° (ENE) 19:34:16 437.432
CINEMA 3 18 Jan 19:37:22 19:41:00 24° 265° (W) 19:44:33 145.822/145.860
HO-68 18 Jan 19:40:46 19:47:42 50° 260° (W) 19:54:42 435.675
UWE-3 18 Jan 19:41:00 19:45:04 57° 74° (ENE) 19:49:09 435.000/436.395/437.385
FUNcube-1 18 Jan 19:42:51 19:46:32 33° 70° (ENE) 19:50:16 145.935
NOAA 18 18 Jan 19:49:43 19:52:15 13° 271° (W) 19:54:47 137.9125
CUTE 1.7 + AOD 2 18 Jan 19:55:31 19:59:06 26° 265° (W) 20:02:43 437.475
ZACube-1 18 Jan 20:04:18 20:08:23 62° 74° (ENE) 20:12:30 437.345
CANX-2 18 Jan 20:26:52 20:28:17 11° 272° (W) 20:29:43 2200.000
STRAND 1 18 Jan 20:30:18 20:35:05 41° 292° (WNW) 20:39:52 437.568
GONETS M04 18 Jan 20:33:23 20:42:07 85° 279° (W) 20:50:56
HUMSAT D 18 Jan 20:33:52 20:37:00 22° 66° (ENE) 20:40:11 437.325/437.525
SEEDS 18 Jan 20:41:25 20:43:29 13° 271° (W) 20:45:32 437.485
Oscar 11 18 Jan 20:44:17 20:48:30 56° 260° (W) 20:52:47 145.826/435.025
CUBEBUG 2 18 Jan 20:46:19 20:49:11 18° 268° (W) 20:52:04 437.445
Cosmos 2499 18 Jan 20:47:26 20:55:44 57° 283° (WNW) 21:03:29 435.465 / 435.565
COMPASS 1 18 Jan 20:50:03 20:52:36 16° 269° (W) 20:55:09 437.405
AIST 2 18 Jan 20:50:19 20:54:22 56° 307° (NW) 20:58:32 435.215
PRISM 18 Jan 20:52:18 20:55:33 22° 94° (E) 20:58:45 437.425
DELFI C3 18 Jan 21:00:40 21:04:39 77° 76° (ENE) 21:08:41 145.870
AAUSAT CUBESAT 2 18 Jan 21:03:40 21:05:58 14° 270° (W) 21:08:17 437.432
ANTELSAT 18 Jan 21:09:50 21:11:19 11° 89° (E) 21:12:49 437.575/2403.000
FUNcube-1 18 Jan 21:19:40 21:22:51 21° 267° (W) 21:26:05 145.935
UWE-3 18 Jan 21:20:08 21:21:55 12° 270° (W) 21:23:43 435.000/436.395/437.385
ZACube-1 18 Jan 21:43:40 21:45:06 12° 271° (W) 21:46:32 437.345
CUBEBUG 1 18 Jan 22:05:29 22:08:37 19° 64° (ENE) 22:11:45 437.445
HUMSAT D 18 Jan 22:08:41 22:12:25 34° 263° (W) 22:16:12 437.325/437.525
UNISAT 6 18 Jan 22:15:23 22:19:45 57° 101° (E) 22:24:10 437.425
RS-15 18 Jan 22:16:04 22:24:26 23° 98° (E) 22:32:59 29.354- 29.394
AISAT 18 Jan 22:17:05 22:20:02 18° 63° (ENE) 22:22:57 437.250
ISS 18 Jan 22:26:24 22:28:53 20° 136° (SE) 22:31:24 145.825
PRISM 18 Jan 22:27:11 22:30:53 32° 291° (WNW) 22:34:33 437.425
TIGRISAT 18 Jan 22:29:18 22:33:43 75° 103° (ESE) 22:38:13 435.000
ESTCUBE 1 18 Jan 22:29:23 22:33:48 54° 72° (ENE) 22:38:15 437.505/2401.250
JAS-2 18 Jan 22:30:42 22:37:12 36° 96° (E) 22:44:08 435.910
AIST 2 18 Jan 22:32:36 22:33:47 11° 329° (NNW) 22:34:58 435.215
GONETS M04 18 Jan 22:34:28 22:40:24 20° 301° (WNW) 22:46:23
BY70-1 18 Jan 22:38:15 22:41:07 47° 261° (W) 22:44:14 436.1900
ANTELSAT 18 Jan 22:44:05 22:48:29 73° 285° (WNW) 22:52:59 437.575/2403.000
Cosmos 2499 18 Jan 22:48:19 22:50:41 11° 305° (NW) 22:53:02 435.465 / 435.565
AO-85 18 Jan 22:48:58 22:52:52 56° 52° (NE) 22:56:41 145.980
VELOX 1 18 Jan 22:49:18 22:53:18 33° 68° (ENE) 22:57:19 145.980
POPSAT HIP 1 18 Jan 22:58:22 23:00:58 16° 92° (E) 23:03:33 437.405
DUCHIFAT 1 18 Jan 23:11:15 23:14:13 19° 93° (E) 23:17:12 145.980
NANOSAT C BR1 18 Jan 23:15:30 23:18:51 23° 94° (E) 23:22:12 145.865
DX 1 18 Jan 23:27:26 23:31:33 41° 70° (ENE) 23:35:40 434.975-435.025
UKube-1 18 Jan 23:30:32 23:34:24 33° 68° (ENE) 23:38:17 .
SPROUT 18 Jan 23:31:38 23:35:51 66° 73° (ENE) 23:40:05 437.525
TISAT 1 18 Jan 23:33:48 23:35:06 11° 60° (ENE) 23:36:26 437.305
CUBEBUG 1 18 Jan 23:40:20 23:44:34 45° 261° (W) 23:48:49 437.445
50 SAT 18 Jan 23:45:11 23:48:45 77° 257° (WSW) 23:52:22 437.505
AISAT 18 Jan 23:51:45 23:56:05 52° 260° (W) 00:00:27 437.250
UNISAT 6 18 Jan 23:53:20 23:56:02 16° 297° (WNW) 23:58:45 437.425
BUGSAT 1 18 Jan 23:53:25 23:56:18 19° 93° (E) 23:59:11 437.445
YUBILEINY 18 Jan 23:59:25 00:06:07 23° 62° (ENE) 00:12:45 435.215
ISS 19 Jan 00:01:55 00:05:08 57° 333° (NNW) 00:08:21 145.825
QB50P1 19 Jan 00:06:02 00:10:17 88° 107° (ESE) 00:14:30 145.935-145.965
TIGRISAT 19 Jan 00:07:56 00:09:50 13° 299° (WNW) 00:11:46 435.000
ESTCUBE 1 19 Jan 00:08:07 00:10:55 16° 269° (W) 00:13:45 437.505/2401.250
PCSat 19 Jan 00:09:14 00:13:02 20° 106° (ESE) 00:16:51 145.827
POLYITAN 1 19 Jan 00:09:36 00:13:50 84° 287° (WNW) 00:18:05 437.675
QB50P2 19 Jan 00:10:47 00:15:02 76° 285° (WNW) 00:19:15 145.880/145.840
BEESAT 2 19 Jan 00:13:29 00:14:32 11° 32° (NNE) 00:15:35 435.950
JAS-2 19 Jan 00:15:35 00:22:17 51° 292° (WNW) 00:29:36 435.910
RS-15 19 Jan 00:23:06 00:34:59 84° 121° (ESE) 00:47:24 29.354- 29.394
VELOX 1 19 Jan 00:26:07 00:29:47 25° 265° (W) 00:33:29 145.980
Cosmos 2504 19 Jan 00:28:24 00:32:28 15° 57° (ENE) 00:36:26 435.465 / 435.565
AO-85 19 Jan 00:30:49 00:32:46 13° 250° (WSW) 00:34:42 145.980
POPSAT HIP 1 19 Jan 00:32:56 00:37:00 48° 288° (WNW) 00:41:03 437.405
DUCHIFAT 1 19 Jan 00:46:08 00:50:04 40° 289° (WNW) 00:53:59 145.980
AIST 1 19 Jan 00:48:16 00:52:15 37° 76° (ENE) 00:56:12
NANOSAT C BR1 19 Jan 00:50:51 00:54:38 33° 291° (WNW) 00:58:23 145.865
Cosmos 2491 19 Jan 00:51:39 00:57:33 21° 77° (ENE) 01:03:27 435.465 / 435.565
Oscar 19 19 Jan 00:55:28 00:59:46 26° 94° (E) 01:04:02 437.125/150
BEESAT 19 Jan 00:56:05 00:59:30 20° 62° (ENE) 01:02:56 436.000
Gurwin Techsat 1B 19 Jan 00:56:24 00:59:14 14° 89° (E) 01:02:04 435.225
SWISSCUBE 19 Jan 00:57:13 01:00:53 23° 64° (ENE) 01:04:34 437.505
DX 1 19 Jan 01:04:43 01:07:54 20° 267° (W) 01:11:06 434.975-435.025
TISAT 1 19 Jan 01:05:58 01:10:08 77° 257° (WSW) 01:14:20 437.305
UKube-1 19 Jan 01:06:56 01:10:28 24° 265° (W) 01:14:01 .
BEESAT 3 19 Jan 01:08:19 01:12:14 50° 51° (NE) 01:16:07 437.485
SPROUT 19 Jan 01:10:42 01:12:12 12° 271° (W) 01:13:44 437.525
BUGSAT 1 19 Jan 01:28:05 01:31:47 36° 290° (WNW) 01:35:30 437.445
ISS 19 Jan 01:39:26 01:42:05 22° 352° (N) 01:44:44 145.825
BEESAT 2 19 Jan 01:49:10 01:53:11 59° 53° (NE) 01:57:10 435.950
PCSat 19 Jan 01:50:33 01:55:55 64° 304° (NW) 02:01:20 145.827
M-CUBED/EXP-1 PRIME 19 Jan 01:51:55 01:54:28 16° 59° (ENE) 01:56:56 437.505
YUBILEINY 19 Jan 01:55:12 02:04:04 84° 265° (W) 02:12:51 435.215
ITUPSAT 1 19 Jan 01:56:17 02:01:00 71° 74° (ENE) 02:05:47 437.325
JAS-2 19 Jan 02:04:23 02:05:56 11° 310° (NW) 02:07:30 435.910
AO-7 19 Jan 02:08:34 02:12:22 14° 86° (E) 02:16:08 29.400- 29.500
Cosmos 2504 19 Jan 02:19:48 02:27:19 79° 81° (E) 02:34:29 435.465 / 435.565
AIST 1 19 Jan 02:26:33 02:29:34 19° 273° (W) 02:32:33
AUBIESAT-1 19 Jan 02:28:49 02:32:28 28° 64° (ENE) 02:35:56 437.475
BEESAT 19 Jan 02:32:18 02:36:54 51° 260° (W) 02:41:34 436.000
CUSAT 1 19 Jan 02:33:14 02:37:15 23° 82° (E) 02:42:05 437.405
SWISSCUBE 19 Jan 02:33:52 02:38:23 44° 261° (W) 02:42:58 437.505
Oscar 19 19 Jan 02:34:21 02:39:14 42° 291° (WNW) 02:44:03 437.125/150
Gurwin Techsat 1B 19 Jan 02:34:26 02:39:47 77° 285° (WNW) 02:45:04 435.225
RS-15 19 Jan 02:37:48 02:48:59 41° 329° (NNW) 03:00:28 29.354- 29.394
MOZHAYETS 4 19 Jan 02:42:44 02:47:14 62° 74° (ENE) 02:51:47
Cosmos 2491 19 Jan 02:44:29 02:53:12 85° 278° (W) 03:01:59 435.465 / 435.565
BEESAT 3 19 Jan 02:46:55 02:49:28 16° 249° (WSW) 02:52:00 437.485
STARS 19 Jan 02:58:21 03:00:56 15° 62° (ENE) 03:03:30 437.465
ITAMSAT 1 19 Jan 03:13:12 03:18:18 52° 100° (E) 03:23:22 435.822/435.867
PHONESAT 2.4 19 Jan 03:15:43 03:17:27 18° 164° (SSE) 03:19:11 2401.200-2431.200
ISS 19 Jan 03:16:31 03:19:17 25° 12° (NNE) 03:22:04 145.825
